[[{"header":{"parameterUnit":"m.s-1","parameterCategory":1,"la1":30.2991,"la2":30.254,"lo1":-89.0895,"lo2":-89.0444,"dy":0.0017,"dx":0.0017,"nx":28,"ny":28,"refTime":"2023-10-23T21:00:00:Z","depth":0,"parameterNumber":2,"parameterNumberName":"U-component_of_WINDS"},"data":[0,0,0,0,0,0,0,0,0,0,0,0,0,0,0,0,0,0,0,0,0,0,0,0,0,0,0,0,0,0,0,0,0,0,0,0,0,0,0,0,0,0,0,0,0,0,0,0,0,0,0,0,0,0,0,0,0,0,-2.6046,-2.6045,0,-2.6007,-2.6006,-2.6006,-2.5931,-2.5929,-2.5928,-2.5926,-2.5888,-2.5888,-2.5889,0,0,0,0,0,0,0,0,0,0,0,0,0,-2.606,-2.606,-2.6046,-2.6045,-2.6045,-2.6007,-2.6006,-2.6006,-2.5931,-2.5929,-2.5927,-2.5926,-2.5888,-2.5888,-2.5889,0,0,0,0,0,0,0,0,0,0,0,0,0,-2.6041,-2.606,-2.6046,-2.6003,-2.5999,-2.6007,-2.6006,-2.6005,-2.5931,-2.5929,-2.5927,-2.5925,-2.5888,-2.5888,-2.5889,-2.5936,0,0,-2.589,-2.589,0,0,0,0,0,0,0,0,-2.6042,-2.604,-2.601,-2.6006,-2.6001,-2.5971,-2.5997,-2.5982,-2.5932,-2.5957,-2.5926,-2.5924,-2.5918,-2.5916,-2.5913,-2.5934,-2.5932,-2.589,-2.5891,-2.5891,-2.5891,0,0,0,0,0,0,0,-2.6043,-2.6042,-2.603,-2.601,-2.6004,-2.5987,-2.5982,-2.5994,-2.595,-2.5955,-2.5949,-2.5945,-2.5915,-2.5913,-2.5912,-2.5932,-2.589,-2.5891,-2.5891,-2.5891,-2.5994,-2.5996,0,0,0,0,0,0,-2.6051,-2.6043,-2.6032,-2.6029,-2.6017,-2.5989,-2.5983,-2.5983,-2.595,-2.5943,-2.5947,-2.5942,-2.5913,-2.5911,-2.591,-2.5965,-2.5891,-2.5891,-2.5892,-2.5991,-2.5994,-2.5997,0,0,0,0,0,0,-2.6051,-2.605,-2.6033,-2.6035,-2.6031,-2.5991,-2.5992,-2.5984,-2.5981,-2.5944,-2.5936,-2.5953,-2.5911,-2.5909,-2.5931,-2.5963,-2.5892,-2.5892,-2.5989,-2.5992,-2.5996,-2.6075,0,0,0,0,0,0,-2.6052,-2.6051,-2.6067,-2.6036,-2.6031,-2.6054,-2.5994,-2.5984,-2.5982,-2.5975,-2.5947,-2.5941,-2.5909,-2.593,-2.5931,-2.5962,-2.5892,-2.5986,-2.599,-2.5995,-2.607,-2.6081,-2.6091,0,0,0,0,0,-2.6053,-2.6091,-2.6068,-2.6067,-2.6051,-2.6055,-2.6053,-2.6016,-2.5985,-2.6002,-2.5979,-2.5942,-2.5959,-2.5933,-2.5934,-2.5965,-2.5983,-2.5989,-2.5994,-2.6065,-2.6079,-2.6091,0,0,0,0,0,0,-2.6126,-2.6086,-2.606,-2.6089,-2.6077,-2.6043,-2.6063,-2.6031,-2.6027,-2.6021,-2.5975,-2.5969,-2.5998,-2.5983,-2.5955,-2.6011,-2.5966,-2.5972,-2.6019,-2.6032,-2.6043,-2.6046,-2.5893,0,0,0,0,0,-2.6146,-2.6153,-2.6117,-2.6146,-2.6141,-2.6103,-2.6104,-2.6076,-2.6061,-2.6056,-2.6034,-2.6022,-2.6025,-2.6028,-2.6028,-2.6067,-2.6062,-2.609,-2.6101,-2.6109,-2.6115,-2.6138,-2.6151,-2.6015,-2.6015,-2.6015,0,0,-2.6187,-2.6165,-2.6172,-2.616,-2.6147,-2.6156,-2.6099,-2.611,-2.6117,-2.6057,-2.6077,-2.6061,-2.6045,-2.6076,-2.6089,-2.6065,-2.6152,-2.6116,-2.6124,-2.6125,-2.6145,-2.6158,-2.617,-2.6019,-2.6018,-2.6017,0,0,-2.6265,-2.6249,-2.6273,-2.6261,-2.6243,-2.6218,-2.6224,-2.6196,-2.6184,-2.6202,-2.6159,-2.6167,-2.6173,-2.6164,-2.616,-2.624,-2.6207,-2.6242,-2.6298,-2.6321,-2.6332,-2.6341,-2.6372,-2.6384,-2.6248,-2.6248,-2.6248,0,-2.6318,-2.6329,-2.6289,-2.6304,-2.6301,-2.6249,-2.6274,-2.6265,-2.6248,-2.6248,-2.6222,-2.623,-2.6215,-2.6245,-2.6265,-2.6263,-2.6271,-2.6244,-2.6333,-2.6342,-2.6351,-2.638,-2.6391,-2.6252,-2.6252,-2.6251,-2.6251,0,-2.6396,-2.6405,-2.6427,-2.6412,-2.6412,-2.6432,-2.6397,-2.6402,-2.6376,-2.6355,-2.6377,-2.6357,-2.6355,-2.636,-2.6333,-2.6388,-2.6374,-2.6341,-2.6295,-2.6369,-2.6396,-2.6406,-2.6259,-2.6257,-2.6256,-2.6255,0,0,-2.6518,-2.6484,-2.6492,-2.6487,-2.6464,-2.6471,-2.649,-2.6488,-2.6494,-2.6485,-2.6502,-2.6509,-2.648,-2.6476,-2.6449,-2.6469,-2.6538,-2.6434,-2.6433,-2.6456,-2.66,-2.6625,-2.6639,-2.6516,-2.6518,-2.6519,-2.6602,0,-2.6593,-2.6622,-2.6589,-2.6626,-2.6636,-2.6588,-2.6605,-2.6594,-2.6576,-2.6583,-2.6563,-2.657,-2.653,-2.6528,-2.6545,-2.6526,-2.6566,-2.6519,-2.6533,-2.6534,-2.6539,-2.6652,-2.6678,-2.6757,-2.6612,-2.6613,-2.6615,0,-2.6682,-2.6679,-2.6718,-2.6697,-2.6699,-2.6715,-2.6712,-2.6719,-2.6707,-2.6693,-2.6691,-2.6659,-2.6678,-2.6634,-2.6662,-2.6631,-2.6635,-2.6626,-2.6628,-2.6629,-2.6579,-2.6657,-2.6781,-2.6793,-2.663,-2.6629,-2.6628,0,-2.677,-2.6775,-2.68,-2.6796,-2.6771,-2.6784,-2.6775,-2.676,-2.6763,-2.6761,-2.6762,-2.6763,-2.6763,-2.6766,-2.6736,-2.6705,-2.6769,-2.6721,-2.676,-2.6761,-2.6775,-2.6775,-2.6903,-2.6776,-2.6776,-2.6776,-2.6776,0,-2.6857,-2.6883,-2.6839,-2.6855,-2.6884,-2.6846,-2.6876,-2.6862,-2.6851,-2.6864,-2.6823,-2.6837,-2.6796,-2.6806,-2.6784,-2.6812,-2.6812,-2.6803,-2.6797,-2.6807,-2.6809,-2.6809,-2.6804,-2.6779,-2.6778,-2.6778,-2.6777,0,-2.6959,-2.693,-2.6955,-2.693,-2.6925,-2.6948,-2.6927,-2.6942,-2.6922,-2.694,-2.6942,-2.6912,-2.6922,-2.6893,-2.6899,-2.6884,-2.6926,-2.691,-2.693,-2.6925,-2.6967,-2.6964,-2.71,-2.7117,-2.6979,-2.698,-2.6982,0,-2.7016,-2.7036,-2.7014,-2.702,-2.7013,-2.7023,-2.7026,-2.6991,-2.6995,-2.6986,-2.7002,-2.7009,-2.7013,-2.7033,-2.7012,-2.7017,-2.7002,-2.705,-2.7003,-2.7014,-2.7005,-2.7005,-2.7008,-2.706,-2.7061,-2.7063,-2.7064,0,-2.7123,-2.7109,-2.7113,-2.7115,-2.7119,-2.7118,-2.7115,-2.7123,-2.7085,-2.7093,-2.7104,-2.7107,-2.7114,-2.7123,-2.7124,-2.7116,-2.7085,-2.7079,-2.7089,-2.71,-2.7111,-2.7108,-2.6958,-2.7076,-2.7075,-2.7074,-2.7073,-2.7073,-2.7205,-2.7221,-2.721,-2.7218,-2.7212,-2.7211,-2.7224,-2.7207,-2.7215,-2.7218,-2.7197,-2.7213,-2.7205,-2.7204,-2.7199,-2.7213,-2.7191,-2.7204,-2.7208,-2.7212,-2.722,-2.7109,-2.7213,-2.7212,-2.7212,-2.7212,-2.7211,0,-2.731,-2.7302,-2.7309,-2.7307,-2.7314,-2.7285,-2.728,-2.7289,-2.7303,-2.7298,-2.7303,-2.7317,-2.7327,-2.7309,-2.7315,-2.733,-2.7316,-2.7333,-2.7332,-2.7332,-2.7238,-2.723,-2.7344,-2.7344,-2.7344,-2.7344,-2.7344,-2.7344,-2.7366,-2.7393,-2.7379,-2.7404,-2.7395,-2.741,-2.741,-2.741,-2.7406,-2.7424,-2.7431,-2.742,-2.741,-2.7417,-2.7425,-2.742,-2.7425,-2.7448,-2.7438,-2.7351,-2.7338,-2.7325,-2.7317,-2.7449,-2.7449,-2.753,-2.7531,-2.7532]},{"header":{"parameterUnit":"m.s-1","parameterCategory":1,"la1":30.2991,"la2":30.254,"lo1":-89.0895,"lo2":-89.0444,"dy":0.0017,"dx":0.0017,"nx":28,"ny":28,"refTime":"2023-10-23T21:00:00:Z","depth":0,"parameterNumber":3,"parameterNumberName":"V-component_of_WINDS"},"data":[0,0,0,0,0,0,0,0,0,0,0,0,0,0,0,0,0,0,0,0,0,0,0,0,0,0,0,0,0,0,0,0,0,0,0,0,0,0,0,0,0,0,0,0,0,0,0,0,0,0,0,0,0,0,0,0,0,0,0.7331,0.7331,0,0.7326,0.7326,0.7326,0.7381,0.7383,0.7384,0.7386,0.7375,0.7373,0.7371,0,0,0,0,0,0,0,0,0,0,0,0,0,0.7384,0.7383,0.7331,0.7331,0.7331,0.7326,0.7326,0.7326,0.7381,0.7383,0.7385,0.7386,0.7375,0.7373,0.7371,0,0,0,0,0,0,0,0,0,0,0,0,0,0.7368,0.7382,0.7331,0.7358,0.736,0.7326,0.7326,0.7326,0.738,0.7383,0.7385,0.7387,0.7376,0.7374,0.7371,0.7309,0,0,0.7363,0.7362,0,0,0,0,0,0,0,0,0.7369,0.7366,0.7354,0.7356,0.7358,0.7357,0.7341,0.732,0.738,0.7372,0.7386,0.7388,0.7367,0.7365,0.7359,0.7308,0.7308,0.7363,0.7361,0.736,0.736,0,0,0,0,0,0,0,0.737,0.7366,0.7329,0.7354,0.7356,0.7369,0.7369,0.7337,0.7356,0.7373,0.7377,0.7376,0.7368,0.7361,0.7359,0.7308,0.7363,0.7361,0.7359,0.7358,0.7207,0.7205,0,0,0,0,0,0,0.7368,0.7367,0.7329,0.7328,0.737,0.7366,0.7366,0.7355,0.7357,0.736,0.7374,0.7379,0.7364,0.7362,0.7359,0.7286,0.736,0.7358,0.7356,0.7209,0.7206,0.7204,0,0,0,0,0,0,0.7369,0.7364,0.7329,0.7349,0.7345,0.7363,0.7349,0.7353,0.7346,0.7358,0.7361,0.7364,0.7366,0.7362,0.7321,0.7286,0.7357,0.7354,0.7212,0.7209,0.7205,0.7139,0,0,0,0,0,0,0.737,0.7364,0.7341,0.7348,0.7344,0.7292,0.7347,0.7352,0.7342,0.7348,0.7349,0.7351,0.7368,0.7325,0.7319,0.7284,0.7352,0.7215,0.7211,0.7206,0.7145,0.7134,0.7125,0,0,0,0,0,0.7372,0.7321,0.734,0.7335,0.7316,0.729,0.7288,0.731,0.7339,0.7316,0.7324,0.7351,0.7292,0.732,0.7314,0.7277,0.7218,0.7212,0.7207,0.7149,0.7136,0.7125,0,0,0,0,0,0,0.7307,0.7323,0.7343,0.7294,0.7291,0.73,0.7271,0.7295,0.7282,0.7288,0.7314,0.7314,0.7268,0.7269,0.7301,0.7218,0.726,0.7253,0.7218,0.7206,0.7196,0.7195,0.735,0,0,0,0,0,0.7288,0.7267,0.7281,0.7236,0.7234,0.7253,0.7242,0.726,0.7257,0.7255,0.726,0.7254,0.7235,0.7221,0.7204,0.7147,0.7147,0.7119,0.7109,0.71,0.7093,0.7062,0.705,0.7186,0.7186,0.7186,0,0,0.7246,0.7252,0.7237,0.7223,0.7223,0.72,0.7251,0.7224,0.7206,0.725,0.7212,0.7216,0.7212,0.7162,0.7141,0.7162,0.7056,0.7093,0.7087,0.7083,0.7055,0.7042,0.7031,0.7182,0.7183,0.7183,0,0,0.7157,0.7161,0.7124,0.7123,0.7123,0.7137,0.7128,0.7134,0.7139,0.7102,0.7135,0.7114,0.708,0.7076,0.7069,0.6983,0.7006,0.6976,0.6922,0.6893,0.6882,0.6873,0.684,0.6828,0.697,0.6969,0.6969,0,0.7104,0.7072,0.7101,0.7072,0.7065,0.7108,0.7069,0.7067,0.706,0.7054,0.7079,0.7038,0.7038,0.6988,0.6967,0.6961,0.6951,0.6975,0.6882,0.6872,0.6864,0.6833,0.6821,0.6966,0.6966,0.6966,0.6967,0,0.7007,0.6984,0.6954,0.6949,0.6939,0.6905,0.6928,0.6914,0.6934,0.6945,0.6906,0.6909,0.6893,0.6883,0.6901,0.6836,0.6849,0.6878,0.6919,0.6847,0.6818,0.6807,0.696,0.6961,0.6963,0.6964,0,0,0.6873,0.6888,0.6876,0.6874,0.6879,0.6861,0.683,0.6817,0.6804,0.6799,0.6773,0.6745,0.6772,0.6764,0.6782,0.6756,0.6687,0.6788,0.6788,0.6767,0.6614,0.6591,0.6577,0.6704,0.6702,0.6701,0.6614,0,0.6786,0.6735,0.6761,0.6706,0.6685,0.6726,0.6699,0.6699,0.6709,0.6691,0.6702,0.6681,0.6719,0.6715,0.6691,0.67,0.6656,0.6707,0.6677,0.6676,0.6674,0.6563,0.6537,0.6455,0.6603,0.6601,0.66,0,0.6676,0.6669,0.6612,0.6622,0.6615,0.659,0.658,0.6564,0.6564,0.6574,0.6567,0.6592,0.6561,0.6606,0.6563,0.6597,0.6587,0.659,0.6588,0.6583,0.6631,0.6552,0.643,0.6416,0.6583,0.6585,0.6586,0,0.6582,0.6559,0.6522,0.652,0.6531,0.6512,0.6516,0.6519,0.651,0.6502,0.6496,0.6484,0.6476,0.6466,0.6486,0.6517,0.644,0.6487,0.6445,0.6444,0.6424,0.6424,0.6295,0.6422,0.6422,0.6422,0.6423,0,0.648,0.6443,0.648,0.6456,0.6417,0.6448,0.6407,0.6415,0.6418,0.6396,0.6432,0.6411,0.6441,0.6422,0.6438,0.64,0.6397,0.6402,0.6406,0.6397,0.6396,0.6388,0.6393,0.6419,0.642,0.642,0.6421,0,0.6366,0.639,0.6352,0.6368,0.6371,0.634,0.6353,0.6331,0.6346,0.6318,0.6313,0.6334,0.6314,0.6335,0.6316,0.6327,0.6275,0.6289,0.6275,0.6278,0.6234,0.6237,0.6093,0.6076,0.6216,0.6215,0.6214,0,0.6298,0.6271,0.6284,0.6274,0.6276,0.6258,0.625,0.628,0.627,0.627,0.6248,0.6233,0.6221,0.6187,0.62,0.6186,0.6198,0.6149,0.6195,0.6187,0.6194,0.6195,0.6191,0.6137,0.6136,0.6134,0.6133,0,0.6173,0.6187,0.6175,0.6167,0.6157,0.6152,0.6149,0.6138,0.617,0.6157,0.6138,0.613,0.6112,0.6095,0.6085,0.6088,0.6114,0.6119,0.6109,0.6097,0.609,0.6091,0.6246,0.6121,0.6123,0.6123,0.6124,0.6125,0.6079,0.6057,0.6064,0.6049,0.6052,0.6049,0.603,0.6043,0.6029,0.6018,0.6038,0.6014,0.6016,0.6007,0.6006,0.5987,0.6008,0.5993,0.5988,0.5983,0.5976,0.6096,0.5986,0.5986,0.5987,0.5987,0.5987,0,0.5955,0.5962,0.5949,0.5946,0.5934,0.5965,0.5964,0.5952,0.5932,0.5933,0.5922,0.5901,0.5885,0.5898,0.5885,0.5868,0.588,0.5863,0.5863,0.5863,0.5959,0.5969,0.5853,0.5853,0.5853,0.5853,0.5854,0.5854,0.5888,0.5853,0.5868,0.5834,0.5842,0.5821,0.5818,0.5815,0.5817,0.5792,0.578,0.579,0.5796,0.5784,0.5771,0.5776,0.5768,0.5746,0.5754,0.5843,0.5856,0.5868,0.5878,0.5745,0.5745,0.5659,0.5658,0.5658]}]]